THORAD AGENA D DEB, 4615

Orbit data source: Space-Track

THORAD AGENA D DEB, 4615 is space debris in SSO originally from a launch on Wed, 08 Apr 1970 UTC launched from the Air Force Western Test Range (AFWTR). Debris objects in space refer to the collection of defunct objects orbiting the Earth. Examples of debris include non-operational satellites, rocket bodies, and fragments generated from explosions, collisions, or faulty payload assembly.

Loading next visibility...
Identifier
4615, 1970-025T
Orbit
SSO
Country
Flag of USUS
Related business
Manufacturer
Unknown
Mission
Spacecraft
Bus & Motor
Unknown
Mass
Unknown
Launch date (UTC)
1970-04-08 (56 years ago)
Launch vehicle
Unknown
Launch site
Air Force Western Test Range (AFWTR)
Object type
Payload
Rocket body
Debris
Shape & HBR
Unknown shape, 0.3 m
Radar Cross Section
Medium (>0.1 m² and <1 m²)

Expand to show TLE details & history
Last TLE update: 13 hours ago

TLE from 13 hours ago
0 THORAD AGENA D DEB
1 04615U 70025T   26072.59850792  .00000301  00000-0  37670-3 0  9992
2 04615 100.1300 196.3181 0058777 354.8572  73.2592 13.72712341789520
Epoch: 2026-03-13T14:21Z
TLE epoch observation values (Epoch: 2026-03-13T14:21:51.084Z)
Latitude
66.65671°
Longitude
145.30241°
Altitude
989.041 km
Speed
7.369 km/s
True Right ascension
11h 27m 59s
True Declination
66° 32' 07"
Sunlit
Object was in daylight at epoch
Visualization orbit readout
Latitude
Unknown
Longitude
Unknown
Altitude
Unknown
Speed
Unknown
Apparent Right ascension
Unknown
Apparent Declination
Unknown
Sunlit
N/A
Visualization observer readout
Local Sidereal Time
07:25:41
Azimuth
Unknown
Elevation
Unknown
Doppler factor
Unknown
Orbital elements
Apogee altitude
1,030.434 km
Perigee altitude
943.852 km
Semi-major axis
7,365.28 km
Eccentricity
0.00588
Inclination
100.13°
RAAN
196.3181°
Arg. of periapsis
354.8572°
True anomaly
73.90554°
Mean anomaly
73.2592°
Eccentric anomaly
73.58224°
Mean motion
3.43368 °/min
Orbital period
104.84 mins
BSTAR
0.0003767
Loading maneuver chart data...
Computing Atmospheric mass density...

Documentation

Showing up to 5 results
|